Voltar ao catálogo

CZ-3 R/B

AtivoHEO
NORAD 20559·ROCKET BODY·🇨🇳 China

Lançado Apr 7, 1990 de Xichang Satellite Launch Center

Loading…

Próximas Passagens (próximas 24 horas)

TLE

AtualizadoSource: Space-Track

Época: Sep 14, 2026, 18:18 UTC

1 20559U 90030B   26257.76265026  .00052073  00000-0  94924-3 0  9997
2 20559  30.7668 264.9012 3984115  72.7678 326.3342  7.56369017255699

Acompanhe CZ-3 R/B em tempo real com AllMySat

Download on the App Store